Tracking 29494 objects as of 8-Sep-2024
HD Live streaming from Space Station
objects crossing your sky now

ATLAS 5 CENTAUR DEB

Track ATLAS 5 CENTAUR DEB now!


NORAD ID: 46638
Int'l Code: 2014-055CN
Perigee: 6,594.3 km
Apogee: 35,280.1 km
Inclination: 20.2 °
Period: 748.5 minutes
Semi major axis: 27308 km
RCS: Unknown
Launch date: September 17, 2014
Source: United States (US)
Launch site: AIR FORCE EASTERN TEST RANGE (AFETR)

Note: This is SATELLITE DEBRIS
Your satellite tracking list
Your tracking list is empty




NASA's NSSDC Master Catalog

Two Line Element Set (TLE):
1 46638U 14055CN  24249.21011682 -.00000005  00000-0  00000-0 0  9990
2 46638  20.2000 168.1433 5252241 127.4587 292.7992  1.92381400 27506
Source of the keplerian elements: AFSPC